[Iaude] MPEC X233: 2023 XN10 [a=2.10,e=0.53,i=10.6,H=23.6]

mpec at marsden.cfa.harvard.edu mpec at marsden.cfa.harvard.edu
Tue Dec 12 00:32:47 EST 2023


M.P.E.C. 2023-X233                            Issued 2023 December 12, 05:31 UT

     The Minor Planet Electronic Circulars contain information on unusual
         minor planets, routine data on comets and natural satellites,
         and occasional editorial announcements.  They are published
    on behalf of Division F of the International Astronomical Union by the
          Minor Planet Center, Smithsonian Astrophysical Observatory,
                          Cambridge, MA 02138, U.S.A.
			  
             Prepared using the Tamkin Foundation Computer Network

                              MPC at CFA.HARVARD.EDU
            URL https://www.minorplanetcenter.net/    ISSN 1523-6714

                                   2023 XN10                                    


Observations:
     K23X10N* C2023 12 10.38769605 38 30.114-38 27 38.19         20.46wXEX233F52
     K23X10N  C2023 12 10.39880205 38 36.201-38 28 01.97         20.21wXEX233F52
     K23X10N  C2023 12 10.40985905 38 42.215-38 28 25.59         20.28wXEX233F52
     K23X10N  C2023 12 10.42093805 38 48.257-38 28 48.84         20.29wXEX233F52
     K23X10N KC2023 12 10.58365605 40 22.954-38 32 41.57         20.5 GVEX233474
     K23X10N KC2023 12 10.58544405 40 23.974-38 32 45.06         20.3 GVEX233474
     K23X10N KC2023 12 10.58723005 40 24.914-38 32 48.37         20.5 GVEX233474
     K23X10N KC2023 12 10.59258905 40 28.070-38 32 59.32         20.5 GVEX233474
     K23X10N  C2023 12 11.01179 05 44 48.90 -38 47 15.2          19.8 GVEX233M28
     K23X10N  C2023 12 11.01384 05 44 49.97 -38 47 17.3          19.4 GVEX233M28
     K23X10N  C2023 12 11.01587 05 44 51.13 -38 47 21.4          20.4 GVEX233M28
     K23X10N |C2023 12 11.24762005 47 22.620-38 55 04.90         20.4 GVEX233807
     K23X10N |C2023 12 11.25254005 47 25.610-38 55 14.10         20.4 GVEX233807
     K23X10N |C2023 12 11.25747005 47 28.630-38 55 23.50         20.2 GVEX233807
     K23X10N |C2023 12 12.19189005 58 25.680-39 25 05.50         19.8 GVEX233807
     K23X10N |C2023 12 12.19682005 58 29.050-39 25 14.40         20.1 GVEX233807
     K23X10N |C2023 12 12.20175005 58 32.480-39 25 23.80         20.3 GVEX233807

Observer details:
474 Mount John Observatory, Lake Tekapo.  Observers A. C. Gilmore, P. M.
    Kilmartin.  Measurer P. M. Kilmartin.  1.0-m f/7.7 Reflector + CCD.
807 Cerro Tololo Observatory, La Serena.  Observers T. Linder, R. Holmes, L.
    Horn.  0.61-m f/11 Ritchey-Chretien + CCD.
F52 Pan-STARRS 2, Haleakala.  Observers J. Herman, T. Lowe, P. Minguez, A.
    Schultz, I. Smith.  Measurers K. Chambers, T. de Boer, J. Fairlamb, H.
    Gao, M. Huber, C.-C. Lin, E. Magnier, Y. Ramanjooloo, R. Wainscoat, R.
    Weryk.  1.8-m Ritchey-Chretien + CCD.
M28 Lesedi Telescope-SAAO Observatory, Sutherland.  Observers N. Erasmus, S.
    Potter, C. van Gend, S. Chandra, H. Worters.  Measurers T. Ngwane, N.
    Erasmus.  1.0-m f/8 Reflector + CCD.

Orbital elements:
2023 XN10                                                Earth MOID = 0.0014 AU
Epoch 2023 Sept. 13.0 TT = JDT 2460200.5                MPC                     
M 323.41226              (2000.0)            P               Q                  
n   0.32318059     Peri.    5.74336     -0.30146090     -0.93636837             
a   2.1029997      Node   101.90225     +0.86732137     -0.34764189             
e   0.5333586      Incl.   10.58955     +0.39607445     +0.04857367             
P   3.05           H   23.61          G   0.15           U   8                  
Residuals in seconds of arc
231210 F52  0.0   0.1-    231210 474  0.8-  0.1+    231211 807  0.0   0.2+
231210 F52  0.3+  0.0     231210 474  0.4+  0.5-    231211 807  0.0   0.0
231210 F52  0.0   0.1-    231211 M28  1.5+  0.5-    231212 807  0.2+  0.3-
231210 F52  0.1-  0.0     231211 M28  0.2-  1.3+    231212 807  0.2-  0.2+
231210 474  0.1+  0.0     231211 M28  0.8-  1.0+    231212 807  0.0   0.1+
231210 474  0.1+  0.0     231211 807  0.2+  0.1+

Ephemeris:
2023 XN10                a,e,i = 2.10, 0.53, 11                  q = 0.9813
Date    TT    R. A. (2000) Decl.     Delta      r    Elong.  Phase     V
2023 11 12    04 02 16.7 -24 55 42   0.2468  1.1787   135.5    36.1    22.4
...
2023 11 27    04 28 16.1 -31 26 07   0.1590  1.0907   127.4    46.0    21.6
...
2023 12 05    04 58 51.6 -35 25 13   0.1159  1.0519   122.2    52.5    21.0
...
2023 12 11    05 44 43.0 -38 46 41   0.08586 1.0276   117.7    58.0    20.4
2023 12 12    05 56 03.0 -39 18 51   0.08117 1.0240   116.9    59.1    20.3
2023 12 13    06 08 54.7 -39 48 33   0.07662 1.0205   116.0    60.1    20.2
...
2023 12 19    08 09 53.8 -39 26 49   0.05401 1.0025   108.6    68.5    19.7
...
2023 12 27    11 41 31.5 -15 42 10   0.05085 0.9868    92.3    84.7    20.1
...
2024 01 11    13 58 27.8 +13 00 08   0.1124  0.9851    87.5    85.9    21.8

A. U. Tomatic                (C) Copyright 2023 MPC           M.P.E.C. 2023-X233





More information about the Iaude mailing list